Tuscaloosa, AL

6:45 PM CDT on June 24, 2019 (GMT -0500)
Tuscaloosa Municipal

Weather History for KTCL - May, 2019

Change the Weather History Date:

Sunday, May 19, 2019

  Actual Average Record
Temperature  
Mean Temperature 78 °F 72 °F  
Max Temperature 88 °F 84 °F 97 °F (1962)
Min Temperature 68 °F 61 °F 42 °F (1976)
Cooling Degree Days 14    
Growing Degree Days 28 (Base 50)    
Moisture  
Dew Point 65 °F    
Average Humidity 68    
Maximum Humidity 90    
Minimum Humidity 46    
Precipitation  
Precipitation 0.00 in 0.13 in 3.41 in (1983)
Month to date precipitation 3.76 2.42  
Year to date precipitation 25.12 21.84  
Sea Level Pressure  
Sea Level Pressure 29.96 in    
Wind  
Wind Speed 7 mph (SSW)    
Max Wind Speed 18 mph    
Max Gust Speed 25 mph    
Visibility 10 miles    
Events      
T = Trace of Precipitation, MM = Missing Value Source: NWS Daily Summary

Daily Weather History Graph

Daily Weather History Graph

Search for Another Location

Airport or City:

Astronomy

May. 19, 2019 Rise Set
Actual Time 5:48 AM CDT 7:46 PM CDT
Civil Twilight 5:20 AM CDT 8:13 PM CDT
Nautical Twilight 4:47 AM CDT 8:47 PM CDT
Astronomical Twilight 4:11 AM CDT 9:23 PM CDT
Moon 8:46 PM CDT (5/19) 6:31 AM CDT (5/19)
Length of Visible Light 14h 53m
Length of Day
13h 57m
Full, 99% of the Moon is Illuminated
May 19
Full
May 26
Last Quarter
Jun 3
New
Jun 10
First Quarter
Jun 17
Full

Hourly Weather History & Observations

Time (CDT) Temp. Heat Index Dew Point Humidity Pressure Visibility Wind Dir Wind Speed Gust Speed Precip Events Conditions
12:53 AM 73.9 °F - 60.1 °F 62% 29.96 in 10.0 mi South 9.2 mph - N/A   Clear
1:53 AM 73.0 °F - 61.0 °F 66% 29.94 in 10.0 mi SE 6.9 mph - N/A   Clear
2:53 AM 71.1 °F - 62.1 °F 73% 29.94 in 10.0 mi South 4.6 mph - N/A   Overcast
3:53 AM 73.0 °F - 63.0 °F 71% 29.94 in 10.0 mi South 5.8 mph - N/A   Overcast
4:53 AM 72.0 °F - 62.1 °F 71% 29.93 in 10.0 mi Variable 5.8 mph - N/A   Clear
5:53 AM 69.1 °F - 62.1 °F 78% 29.94 in 10.0 mi South 6.9 mph - N/A   Clear
6:53 AM 72.0 °F - 62.1 °F 71% 29.96 in 10.0 mi South 11.5 mph - N/A   Clear
7:53 AM 75.0 °F - 64.9 °F 71% 29.98 in 10.0 mi South 8.1 mph - N/A   Partly Cloudy
8:53 AM 77.0 °F - 66.0 °F 69% 29.99 in 10.0 mi SSW 10.4 mph - N/A   Clear
9:53 AM 82.9 °F 85.4 °F 66.9 °F 58% 29.97 in 10.0 mi South 11.5 mph 21.9 mph N/A   Clear
10:53 AM 86.0 °F 90.1 °F 69.1 °F 57% 29.96 in 10.0 mi South 15.0 mph 23.0 mph N/A   Clear
11:53 AM 86.0 °F 90.1 °F 69.1 °F 57% 29.96 in 10.0 mi SSW 11.5 mph - N/A   Clear
12:53 PM 87.1 °F 88.9 °F 64.9 °F 48% 29.96 in 10.0 mi South 9.2 mph - N/A   Clear
1:53 PM 88.0 °F 89.3 °F 64.0 °F 45% 29.96 in 10.0 mi SSW 13.8 mph - N/A   Clear
2:53 PM 84.9 °F 85.9 °F 63.0 °F 48% 29.95 in 10.0 mi South 13.8 mph 19.6 mph N/A   Clear
3:53 PM 82.9 °F 85.0 °F 66.0 °F 56% 29.95 in 10.0 mi SW 6.9 mph - N/A   Overcast
4:53 PM 82.0 °F 84.5 °F 66.9 °F 60% 29.94 in 10.0 mi SW 5.8 mph - N/A   Mostly Cloudy
5:53 PM 78.1 °F - 70.0 °F 76% 29.95 in 10.0 mi SW 4.6 mph - N/A   Mostly Cloudy
6:53 PM 78.1 °F - 64.9 °F 64% 29.95 in 10.0 mi SSW 9.2 mph - N/A   Mostly Cloudy
7:53 PM 75.0 °F - 64.9 °F 71% 29.96 in 10.0 mi SSW 4.6 mph - N/A   Mostly Cloudy
8:53 PM 73.0 °F - 66.0 °F 79% 29.97 in 10.0 mi South 3.5 mph - N/A   Scattered Clouds
9:53 PM 72.0 °F - 66.0 °F 81% 30.00 in 10.0 mi South 4.6 mph - N/A   Mostly Cloudy
10:53 PM 71.1 °F - 66.0 °F 84% 30.00 in 10.0 mi South 3.5 mph - N/A   Mostly Cloudy
11:53 PM 70.0 °F - 66.0 °F 87% 30.00 in 10.0 mi Calm Calm - N/A   Clear